Meteo Giornale » Osservazioni meteo Francia » Parigi-Orly

ore: 05:00 - Osservazioni Meteo Parigi-Orly
Lat. 48° 44' N Lon. 2° 24' E Alt. 89 metri s.l.m.

molto_nuvoloso Europe/Paris

17 °C

Molto Nuvoloso

Temp. 24 Ore

17 °C

36 °C

Ovest/Nord-Ovest

11.1 Km/h

Dew point 12 °C

Umidità 72 %

Visibilità  10 Km

Il sole sorge alle ore 05:46

Il sole tramonta alle ore 21:59

Data e Ora Cielo e Fenomeni T °C DP °C Um. % Pres. hPa Vis. km Vento km/h
Oggi h: 05:00 molto_nuvoloso Molto Nuvoloso 17 12 72 1018 10 O/NO 11.1
Oggi h: 04:30 molto_nuvoloso Molto Nuvoloso 17 12 72 1018 10 O/NO 16.7
Oggi h: 04:00 molto_nuvoloso Molto Nuvoloso 18 12 67 1017 10 O/NO 9.3
Oggi h: 03:30 molto_nuvoloso Molto Nuvoloso 18 12 67 1017 10 N 5.5
Oggi h: 03:00 sereno Sereno 19 13 68 1017 10 O/NO 7.4
Oggi h: 02:30 sereno Sereno 19 12 63 1017 10 N/NO 9.3
Oggi h: 02:00 sereno Sereno 20 13 64 1017 10 N/NO 16.7
Oggi h: 01:30 sereno Sereno 20 13 64 1017 10 N/NO 13
Oggi h: 01:00 sereno Sereno 20 13 64 1016 10 N/NO 11.1
Oggi h: 00:30 sereno Sereno 21 14 64 1016 10 N/NO 16.7
Oggi h: 00:00 sereno Sereno 22 14 60 1016 10 NO 14.8
Ieri h: 23:30 sereno Sereno 22 15 64 1016 10 N 16.7
Ieri h: 23:00 sereno Sereno 23 15 60 1015 10 N/NO 18.5
Ieri h: 22:30 sereno Sereno 24 16 60 1015 10 N 14.8
Ieri h: 22:00 sereno Sereno 24 16 60 1015 10 N/NO 20.3
Ieri h: 21:30 sereno Sereno 25 17 61 1014 10 N/NO 16.7
Ieri h: 21:00 sereno Sereno 25 17 61 1014 10 N/NO 22.2
Ieri h: 20:30 sereno Sereno 27 18 57 1014 10 N/NO 20.3
Ieri h: 20:00 sereno Sereno 28 19 58 1013 10 NO 20.3
Ieri h: 19:30 sereno Sereno 30 19 51 1013 10 NO 22.2
Ieri h: 19:00 sereno Sereno 32 19 46 1012 10 O/NO 22.2
Ieri h: 18:30 sereno Sereno 34 18 38 1012 10 O 22.2
Ieri h: 18:00 sereno Sereno 34 16 34 1012 10 O 25.9
Ieri h: 17:30 sereno Sereno 35 17 34 1012 10 O 29.6
Ieri h: 17:00 sereno Sereno 35 15 30 1012 10 O 22.2
Ieri h: 16:30 sereno Sereno 36 16 30 1012 10 O 18.5
Ieri h: 16:00 sereno Sereno 36 17 32 1013 10 O 16.7
Ieri h: 15:30 sereno Sereno 35 16 32 1013 10 O 22.2
Ieri h: 15:00 sereno Sereno 35 15 30 1013 10 O 20.3
Ieri h: 14:30 sereno Sereno 34 17 36 1013 10 O 14.8
Ieri h: 14:00 sereno Sereno 33 16 36 1013 10 O 16.7
Ieri h: 13:30 sereno Sereno 33 17 38 1013 10 O/SO 14.8
Ieri h: 13:00 sereno Sereno 32 17 40 1013 10 O/SO 18.5
Ieri h: 12:30 sereno Sereno 33 17 38 1013 10 O 18.5
Ieri h: 12:00 sereno Sereno 32 17 40 1013 10 O/SO 16.7
Ieri h: 11:30 sereno Sereno 31 19 48 1013 10 O 11.1
Ieri h: 11:00 sereno Sereno 30 18 48 1013 10 S/SO 11.1
Ieri h: 10:30 sereno Sereno 30 19 51 1013 10 N 5.5
Ieri h: 10:00 sereno Sereno 28 20 61 1013 10 O 7.4
Ieri h: 09:30 sereno Sereno 27 19 61 1013 10 O/NO 11.1
Ieri h: 09:00 sereno Sereno 27 19 61 1013 10 O/SO 13
Ieri h: 08:30 sereno Sereno 26 19 65 1013 10 N 5.5
Ieri h: 08:00 sereno Sereno 25 19 69 1013 10 N 3.7
Ieri h: 07:30 sereno Sereno 24 18 69 1013 10 N 3.7
Ieri h: 07:00 sereno Sereno 23 18 73 1013 10 N 5.5
Ieri h: 06:30 sereno Sereno 22 18 78 1012 10 NO 7.4
Ieri h: 06:00 sereno Sereno 21 17 77 1012 10 O 7.4